Regional Weather Roundup
Issued by NWS

Home | Current Version | Previous Version | Graphics & Text | Print | Product List | Glossary On
Versions: 1 2 3 4 5 6 7 8 9 10 11 12 13 14 15 16 17 18 19 20 21 22 23 24 25 26 27 28 29 30 31 32 33 34 35 36 37 38 39 40 41 42 43 44 45 46 47 48 49 50
000
ASUS45 KTFX 271704
RWRMT
MONTANA REGIONAL WEATHER ROUNDUP
NATIONAL WEATHER SERVICE GREAT FALLS MT
1100 AM MDT THU AUG 27 2015

NOTE: "FAIR" INDICATES FEW OR NO CLOUDS BELOW 12000 FEET WITH NO
SIGNIFICANT WEATHER AND/OR OBSTRUCTIONS TO VISIBILITY.

MTZ001>007-043-271800-
WEST OF THE DIVIDE

CITY           SKY/WX    TMP DP  RH WIND       PRES   REMARKS
KALISPELL      CLOUDY    67  44  43 CALM      30.07S SMOKE
MISSOULA       CLOUDY    67  40  37 CALM      30.12S HAZE
BUTTE          PTSUNNY   71  42  35 E9        30.25R
MULLAN PASS    CLOUDY    67  33  28 CALM      30.26R HAZE
DEER LODGE       N/A     68  45  42 CALM      30.22R
EUREKA           N/A     64  43  45 CALM      30.07
HAMILTON         N/A     63  50  63 N2        30.13R
LIBBY            N/A     61  45  55 CALM      30.08S
$$

MTZ008-052>055-271800-
SOUTHWEST MONTANA

CITY           SKY/WX    TMP DP  RH WIND       PRES   REMARKS
BOZEMAN        CLOUDY    67  51  56 CALM      30.20R
DILLON         PTSUNNY   70  47  43 SW5       30.24R HAZE
W YELLOWSTONE  MOSUNNY   61  46  59 CALM      30.36S
$$

MTZ009-010-012-014-046-048-049-054-271800-
EAST SLOPES AND CENTRAL MONTANA

CITY           SKY/WX    TMP DP  RH WIND       PRES   REMARKS
CUT BANK       CLOUDY    74  45  35 SW6       30.04S HAZE
GREAT FALLS    CLOUDY    68  42  38 VRB6      30.05R
MALMSTROM AFB  CLOUDY    66  44  43 W7        30.05R
HELENA         CLOUDY    68  43  40 CALM      30.14R
$$

MTZ011-013-016-021-045-047-050-051-271800-
NORTH CENTRAL MONTANA

CITY           SKY/WX    TMP DP  RH WIND       PRES   REMARKS
HAVRE          MOSUNNY   70  51  51 NW6       29.98S
LEWISTOWN      CLOUDY    76  52  43 E5        30.08F
N BAR RANCH      N/A     75  50  41 SW5       30.12R
CHINOOK          N/A     68  54  60 CALM      29.97S
FORT BENTON      N/A     68  45  42 S3        30.02S
$$

MTZ017>020-022>027-061-062-271800-
NORTHEAST MONTANA

CITY           SKY/WX    TMP DP  RH WIND       PRES   REMARKS
GLASGOW        MOSUNNY   76  57  51 CALM      29.97F
JORDAN           N/A     78  56  46 CALM      29.98S
SIDNEY         PTSUNNY   75  64  69 CALM      29.97S
WOLF POINT     MOSUNNY   76  59  55 VRB3      29.97S
PLENTYWOOD       N/A     77  61  57 CALM      29.98F
POPLAR           N/A     73  61  64 CALM      29.97F
$$

MTZ028>42-056>058-271800-
SOUTHCENTRAL AND SOUTHEAST MONTANA

CITY           SKY/WX    TMP DP  RH WIND       PRES   REMARKS
BAKER          MOSUNNY   78  64  61 NW8       30.00F
BILLINGS       CLOUDY    76  53  44 SW20      30.08R
LIVINGSTON     MOSUNNY   79  44  28 W14       30.16R
MILES CITY     PTSUNNY   79  58  48 NW6       29.99F
FORSYTH          N/A     77  52  41 W3        30.00S
$$

REGIONAL REPORTS...DAKOTAS

CITY           SKY/WX    TMP DP  RH WIND       PRES   REMARKS
WILLISTON      MOSUNNY   75  62  64 CALM      29.98S
MINOT          PTSUNNY   72  62  71 CALM      29.97S
DICKINSON      CLOUDY    78  60  53 SW8       29.97F
BISMARCK       CLOUDY    74  64  71 SW3       29.98F
GRAND FORKS    PTSUNNY   70  58  65 SE6       29.96F
FARGO          MOSUNNY   73  62  68 E6        29.96F
BUFFALO SD       N/A     74  59  59 W6        29.95S
RAPID CITY     CLOUDY    70  61  73 N7        30.06R
$$

REGIONAL REPORTS...WYOMING/IDAHO/WASHINGTON

CITY           SKY/WX    TMP DP  RH WIND       PRES   REMARKS
GILLETTE       CLOUDY    70  56  61 S8        30.11S
SHERIDAN       PTSUNNY   76  55  48 S5        30.09R
BUFFALO WY     CLOUDY    76  48  37 SW14      30.17S
CODY           MOSUNNY   73  48  40 S8        30.20R
YELLOWSTONE LA   N/A     54  48  80 VRB3      30.45R
IDAHO FALLS    PTSUNNY   68  55  63 CALM      30.28R
SALMON         MOSUNNY   72  46  40 N3        30.18S
BOISE          PTSUNNY   82  37  20 NW3       30.14S
SPOKANE        MOSUNNY   72  39  30 S9        30.06S HAZE
$$

REGIONAL REPORTS...ALBERTA

CITY           SKY/WX    TMP DP  RH WIND       PRES   REMARKS
$$

REGIONAL REPORTS...SASKATCHEWAN

CITY           SKY/WX    TMP DP  RH WIND       PRES   REMARKS
$$



USA.gov is the U.S. government's official web portal to all federal, state and local government web resources and services.